Time,TemperatureF,DewpointF,PressureIn,WindDirection,WindDirectionDegrees,WindSpeedMPH,WindSpeedGustMPH,Humidity,HourlyPrecipIn,Conditions,Clouds,dailyrainin,SolarRadiationWatts/m^2,SoftwareType,DateUTC
2015-09-01 10:54:00,88.0,78.6,30.08,North,0,0.0,-999.0,74,-99.99,,,0.04,239.0,meteohub,2015-09-01 14:54:00,
2015-09-01 10:55:00,88.0,79.5,30.08,North,0,0.0,-999.0,76,-99.99,,,0.00,239.0,meteohub,2015-09-01 14:55:00,
2015-09-01 11:00:00,88.9,79.9,30.08,North,0,0.0,2.0,75,0.00,,,0.00,740.0,meteohub,2015-09-01 15:00:00,
2015-09-01 11:05:00,89.1,79.7,30.08,North,0,0.0,7.0,74,0.00,,,0.00,209.0,meteohub,2015-09-01 15:05:00,
2015-09-01 11:10:00,89.1,79.7,30.08,North,0,6.0,9.0,74,0.00,,,0.00,865.0,meteohub,2015-09-01 15:10:00,
2015-09-01 11:15:00,89.2,79.5,30.08,North,0,1.0,10.0,73,0.00,,,0.00,255.0,meteohub,2015-09-01 15:15:00,
2015-09-01 11:20:00,88.3,79.3,30.07,North,0,4.0,10.0,75,0.00,,,0.00,183.0,meteohub,2015-09-01 15:20:00,
2015-09-01 11:25:00,87.6,79.2,30.07,North,0,8.0,10.0,76,0.00,,,0.00,183.0,meteohub,2015-09-01 15:25:00,
2015-09-01 11:30:00,88.3,79.3,30.07,North,0,2.0,11.0,75,0.00,,,0.00,253.0,meteohub,2015-09-01 15:30:00,
2015-09-01 11:35:00,88.2,79.7,30.07,North,0,6.0,11.0,76,0.00,,,0.00,204.0,meteohub,2015-09-01 15:35:00,
2015-09-01 11:40:00,88.2,79.2,30.07,North,0,7.0,11.0,75,0.00,,,0.00,287.0,meteohub,2015-09-01 15:40:00,
2015-09-01 11:47:00,88.9,79.2,30.06,North,0,5.0,8.0,73,0.00,,,0.00,1011.0,meteohub,2015-09-01 15:47:00,
2015-09-01 11:52:00,90.1,79.5,30.06,North,0,6.0,11.0,71,0.00,,,0.00,1035.0,meteohub,2015-09-01 15:52:00,
2015-09-01 11:57:00,89.8,78.6,30.06,North,0,9.0,11.0,70,0.00,,,0.00,339.0,meteohub,2015-09-01 15:57:00,
2015-09-01 12:02:00,90.1,79.0,30.06,North,0,1.0,12.0,70,0.00,,,0.00,1009.0,meteohub,2015-09-01 16:02:00,
2015-09-01 12:07:00,90.3,79.2,30.06,North,0,3.0,12.0,70,0.00,,,0.00,359.0,meteohub,2015-09-01 16:07:00,
2015-09-01 12:12:00,90.0,79.3,30.06,North,0,3.0,12.0,71,0.00,,,0.00,299.0,meteohub,2015-09-01 16:12:00,
2015-09-01 12:17:00,90.7,78.3,30.06,North,0,8.0,11.0,67,0.00,,,0.00,1018.0,meteohub,2015-09-01 16:17:00,
2015-09-01 12:22:00,90.5,79.0,30.06,North,0,10.0,11.0,69,0.00,,,0.00,294.0,meteohub,2015-09-01 16:22:00,
2015-09-01 12:27:00,90.3,78.8,30.06,North,0,7.0,11.0,69,0.00,,,0.00,1002.0,meteohub,2015-09-01 16:27:00,
2015-09-01 12:32:00,90.9,78.4,30.06,North,0,10.0,13.0,67,0.00,,,0.00,947.0,meteohub,2015-09-01 16:32:00,
2015-09-01 12:37:00,91.0,79.0,30.06,North,0,8.0,13.0,68,0.00,,,0.00,995.0,meteohub,2015-09-01 16:37:00,
2015-09-01 12:42:00,91.9,79.0,30.06,North,0,12.0,13.0,66,0.00,,,0.00,1009.0,meteohub,2015-09-01 16:42:00,
2015-09-01 12:47:00,91.2,78.3,30.05,North,0,11.0,13.0,66,0.00,,,0.00,1011.0,meteohub,2015-09-01 16:47:00,
2015-09-01 12:52:00,91.2,78.3,30.05,North,0,6.0,13.0,66,0.00,,,0.00,1004.0,meteohub,2015-09-01 16:52:00,
2015-09-01 12:57:00,91.9,79.0,30.05,North,0,8.0,13.0,66,0.00,,,0.00,1044.0,meteohub,2015-09-01 16:57:00,
2015-09-01 13:02:00,91.4,79.3,30.05,North,0,7.0,12.0,68,0.00,,,0.00,1028.0,meteohub,2015-09-01 17:02:00,
2015-09-01 13:07:00,91.2,78.3,30.05,North,0,5.0,12.0,66,0.00,,,0.00,1011.0,meteohub,2015-09-01 17:07:00,
2015-09-01 13:12:00,91.8,78.8,30.05,North,0,9.0,12.0,66,0.00,,,0.00,972.0,meteohub,2015-09-01 17:12:00,
2015-09-01 13:17:00,91.8,78.3,30.05,North,0,4.0,12.0,65,0.00,,,0.00,958.0,meteohub,2015-09-01 17:17:00,
2015-09-01 13:20:00,91.6,79.0,30.06,North,0,7.0,12.0,67,0.00,,,0.00,353.0,meteohub,2015-09-01 17:20:00,
2015-09-01 13:21:00,91.6,79.0,30.06,North,0,11.0,12.0,67,0.00,,,0.00,408.0,meteohub,2015-09-01 17:21:00,
2015-09-01 13:24:00,91.6,79.5,30.05,North,0,7.0,12.0,68,0.00,,,0.00,1069.0,meteohub,2015-09-01 17:24:00,
2015-09-01 13:34:00,91.9,79.0,30.05,North,0,11.0,13.0,66,0.00,,,0.00,1058.0,meteohub,2015-09-01 17:34:00,
2015-09-01 13:39:00,92.1,79.2,30.05,North,0,7.0,13.0,66,0.00,,,0.00,1063.0,meteohub,2015-09-01 17:39:00,
2015-09-01 13:44:00,92.1,78.6,30.05,North,0,5.0,13.0,65,0.00,,,0.00,1041.0,meteohub,2015-09-01 17:44:00,
2015-09-01 13:49:00,92.5,78.4,30.05,North,0,5.0,14.0,64,0.00,,,0.00,332.0,meteohub,2015-09-01 17:49:00,
2015-09-01 13:54:00,92.5,79.0,30.04,North,0,6.0,14.0,65,0.00,,,0.00,1034.0,meteohub,2015-09-01 17:54:00,
2015-09-01 13:59:00,92.5,79.0,30.04,North,0,6.0,14.0,65,0.00,,,0.00,1076.0,meteohub,2015-09-01 17:59:00,
2015-09-01 14:04:00,91.9,79.0,30.04,North,0,8.0,14.0,66,0.00,,,0.00,223.0,meteohub,2015-09-01 18:04:00,
2015-09-01 14:09:00,91.0,78.1,30.04,North,0,8.0,14.0,66,0.00,,,0.00,483.0,meteohub,2015-09-01 18:09:00,
2015-09-01 14:14:00,91.4,77.9,30.04,North,0,9.0,15.0,65,0.00,,,0.00,468.0,meteohub,2015-09-01 18:14:00,
2015-09-01 14:19:00,91.6,78.1,30.04,North,0,10.0,15.0,65,0.00,,,0.00,983.0,meteohub,2015-09-01 18:19:00,
2015-09-01 14:25:00,91.9,78.1,30.04,North,0,9.0,15.0,64,0.00,,,0.00,958.0,meteohub,2015-09-01 18:25:00,
2015-09-01 14:30:00,91.6,78.1,30.04,North,0,9.0,15.0,65,0.00,,,0.00,969.0,meteohub,2015-09-01 18:30:00,
2015-09-01 14:35:00,91.9,78.1,30.04,North,0,11.0,14.0,64,0.00,,,0.00,954.0,meteohub,2015-09-01 18:35:00,
2015-09-01 14:40:00,91.9,79.0,30.04,North,0,3.0,14.0,66,0.00,,,0.00,923.0,meteohub,2015-09-01 18:40:00,
2015-09-01 14:45:00,91.8,77.4,30.03,North,0,10.0,15.0,63,0.00,,,0.00,937.0,meteohub,2015-09-01 18:45:00,
2015-09-01 14:50:00,92.1,77.7,30.03,North,0,9.0,15.0,63,0.00,,,0.00,359.0,meteohub,2015-09-01 18:50:00,
2015-09-01 14:55:00,91.8,76.8,30.03,North,0,7.0,15.0,62,0.00,,,0.00,390.0,meteohub,2015-09-01 18:55:00,
2015-09-01 15:00:00,91.8,76.8,30.03,North,0,2.0,12.0,62,0.00,,,0.00,847.0,meteohub,2015-09-01 19:00:00,
2015-09-01 15:05:00,91.8,75.4,30.03,North,0,0.0,12.0,59,0.00,,,0.00,571.0,meteohub,2015-09-01 19:05:00,
2015-09-01 15:10:00,91.6,76.6,30.03,North,0,5.0,12.0,62,0.00,,,0.00,461.0,meteohub,2015-09-01 19:10:00,
2015-09-01 15:15:00,91.9,77.0,30.03,North,0,7.0,12.0,62,0.00,,,0.00,911.0,meteohub,2015-09-01 19:15:00,
2015-09-01 15:20:00,92.1,77.2,30.02,North,0,6.0,11.0,62,0.00,,,0.00,204.0,meteohub,2015-09-01 19:20:00,
2015-09-01 15:25:00,91.8,77.9,30.03,North,0,7.0,11.0,64,0.00,,,0.00,846.0,meteohub,2015-09-01 19:25:00,
2015-09-01 15:30:00,91.4,77.0,30.03,North,0,0.0,12.0,63,0.00,,,0.00,403.0,meteohub,2015-09-01 19:30:00,
2015-09-01 15:35:00,91.0,77.2,30.03,North,0,4.0,12.0,64,0.00,,,0.00,255.0,meteohub,2015-09-01 19:35:00,
2015-09-01 15:40:00,91.2,76.8,30.02,North,0,2.0,9.0,63,0.00,,,0.00,758.0,meteohub,2015-09-01 19:40:00,
2015-09-01 15:45:00,92.1,77.2,30.02,North,0,5.0,10.0,62,0.00,,,0.00,693.0,meteohub,2015-09-01 19:45:00,
2015-09-01 15:50:00,92.3,77.9,30.02,North,0,1.0,10.0,63,0.00,,,0.00,719.0,meteohub,2015-09-01 19:50:00,
2015-09-01 15:55:00,92.5,77.0,30.02,North,0,2.0,12.0,61,0.00,,,0.00,722.0,meteohub,2015-09-01 19:55:00,
2015-09-01 16:00:00,92.3,77.4,30.02,North,0,9.0,12.0,62,0.00,,,0.00,357.0,meteohub,2015-09-01 20:00:00,
2015-09-01 16:05:00,91.8,77.9,30.02,North,0,8.0,12.0,64,0.00,,,0.00,647.0,meteohub,2015-09-01 20:05:00,
2015-09-01 16:10:00,91.9,78.1,30.02,North,0,9.0,12.0,64,0.00,,,0.00,642.0,meteohub,2015-09-01 20:10:00,
2015-09-01 16:15:00,91.8,77.4,30.02,North,0,12.0,12.0,63,0.00,,,0.00,617.0,meteohub,2015-09-01 20:15:00,
2015-09-01 16:20:00,91.6,78.1,30.01,North,0,12.0,14.0,65,0.00,,,0.00,624.0,meteohub,2015-09-01 20:20:00,
2015-09-01 16:26:00,90.9,77.5,30.01,North,0,6.0,14.0,65,0.00,,,0.00,118.0,meteohub,2015-09-01 20:26:00,
2015-09-01 16:31:00,90.3,77.4,30.01,North,0,6.0,14.0,66,0.00,,,0.00,578.0,meteohub,2015-09-01 20:31:00,
2015-09-01 16:36:00,90.1,77.7,30.01,North,0,5.0,13.0,67,0.00,,,0.00,552.0,meteohub,2015-09-01 20:36:00,
2015-09-01 16:41:00,90.1,77.7,30.01,North,0,8.0,13.0,67,0.00,,,0.00,533.0,meteohub,2015-09-01 20:41:00,